User: anonymous   Login
Location: Unspecified
(0.0000°N, 0.0000°E)
Time: 18:02:05
(UTC+00:00)
Language:

NUDTSAT - Orbit

View from above orbital plane
View from above orbital plane
View from above satellite
View from above satellite

Ground track
Ground track

The orbit is defined by the following mean orbital elements,

1 42787U 17036Y   23150.37527266  .08094306  23455-5  11953-2 0  9999
2 42787  97.1162 199.3051 0013837 253.4226 106.5552 16.34246787330794
Epoch (UTC): 30 May 2023 09:00:23
Eccentricity: 0.0013837
inclination: 97.1162°
perigee height: 172 km
apogee height: 190 km
right ascension of ascending node: 199.3051°
argument of perigee: 253.4226°
revolutions per day: 16.34246787
mean anomaly at epoch: 106.5552°

The dashed part of the orbit path shows where the satellite is in the earth's shadow,  

DLR